Location: Hickory_CSC
(35.7330°N, 81.3330°W)
Time: 07:06:25
(UTC-04:00)

ISS - All Passes

Search period start: 26 May 2017 00:00
Search period end: 05 June 2017 00:00
Orbit: 402 x 408 km, 51.6° (Epoch: 26 May)

Date Brightness Start Highest point End Pass type
(mag) Time Alt. Az. Time Alt. Az. Time Alt. Az.
26 May - 03:40:26 10° NNW 03:43:11 24° NNE 03:45:56 10° E visible
26 May - 05:16:47 10° WNW 05:19:40 29° SW 05:22:32 10° SSE visible
26 May - 20:18:13 10° SSW 20:21:10 31° SE 20:24:08 10° ENE daylight
26 May - 21:54:58 10° W 21:57:41 23° NNW 22:00:25 10° NNE visible
27 May - 02:48:52 10° N 02:50:56 15° NNE 02:52:59 10° ENE visible
27 May - 04:24:28 10° NW 04:27:43 65° SW 04:30:56 10° SE visible
27 May - 19:27:15 10° SSE 19:29:17 15° SE 19:31:18 10° E daylight
27 May - 21:02:22 10° WSW 21:05:30 41° NW 21:08:39 10° NE visible
28 May - 01:57:56 10° N 01:58:35 10° NNE 01:59:13 10° NNE visible
28 May - 03:32:25 10° NW 03:35:39 57° NE 03:38:52 10° ESE night (unlit)
28 May - 05:10:53 10° WSW 05:11:45 11° SW 05:12:37 10° SW night (unlit)
28 May - 20:10:06 10° SW 20:13:23 87° NW 20:16:42 10° NE daylight
28 May - 21:48:42 10° NW 21:50:19 13° NNW 21:51:55 10° N visible
29 May - 02:40:34 10° NNW 02:43:30 30° NE 02:46:26 10° E visible
29 May - 04:17:15 10° WNW 04:19:52 22° SW 04:22:28 10° S night (unlit)
29 May - 19:18:14 10° SSW 19:21:22 41° SE 19:24:30 10° ENE daylight
29 May - 20:55:30 10° W 20:57:59 20° NNW 21:00:29 10° NNE daylight
30 May - 01:48:53 10° NNW 01:51:15 18° NNE 01:53:36 10° ENE visible
30 May - 03:24:44 10° WNW 03:27:55 47° SW 03:31:04 10° SSE night (unlit)
30 May - 18:26:55 10° S 18:29:24 20° SE 18:31:54 10° E daylight
30 May - 20:02:42 10° WSW 20:05:44 33° NW 20:08:46 10° NNE daylight
31 May - 00:57:32 10° N 00:58:53 12° NNE 01:00:15 10° NE visible
31 May - 02:32:34 10° NW 02:35:51 77° NE 02:39:06 10° SE night (unlit)
31 May - 19:10:17 10° WSW 19:13:33 66° NW 19:16:50 10° NE daylight
31 May - 20:49:31 10° NW 20:50:35 11° NNW 20:51:39 10° N daylight
01 Jun - 01:40:36 10° NNW 01:43:42 37° NE 01:46:46 10° ESE visible
01 Jun - 03:17:44 10° W 03:19:58 17° SW 03:22:10 10° S night (unlit)
01 Jun - 18:18:14 10° SW 18:21:28 56° SE 18:24:42 10° NE daylight
01 Jun - 19:55:58 10° WNW 19:58:11 17° NNW 20:00:25 10° NNE daylight
02 Jun - 00:48:49 10° NNW 00:51:26 21° NNE 00:54:03 10° E visible
02 Jun - 02:24:58 10° WNW 02:27:59 35° SW 02:31:00 10° SSE night (unlit)
02 Jun - 17:26:38 10° S 17:29:26 26° SE 17:32:15 10° ENE daylight
02 Jun - 19:03:00 10° W 19:05:52 27° NNW 19:08:44 10° NNE daylight
02 Jun - 23:57:15 10° N 23:59:05 14° NNE 00:00:53 10° ENE visible
03 Jun - 01:32:38 10° NW 01:35:56 80° SW 01:39:11 10° SE visible
03 Jun - 16:35:56 10° SSE 16:37:29 13° SE 16:39:01 10° E daylight
03 Jun - 18:10:25 10° WSW 18:13:37 49° NW 18:16:51 10° NE daylight
04 Jun - 00:40:34 10° NW 00:43:46 47° NE 00:46:56 10° ESE visible
04 Jun - 02:18:17 10° W 02:19:55 13° SW 02:21:33 10° SSW night (unlit)
04 Jun - 17:18:10 10° SW 17:21:27 77° SE 17:24:45 10° NE daylight
04 Jun - 18:56:24 10° WNW 18:58:17 14° NNW 19:00:10 10° N daylight
04 Jun - 23:48:40 10° NNW 23:51:30 26° NNE 23:54:18 10° E visible
